Linden, NJ

5:58 PM EST on November 24, 2017 (GMT -0500)
Linden

Weather History for KLDJ - July, 2013

Change the Weather History Date:

Tuesday, July 9, 2013

  Actual Average (KEWR) Record (KEWR)
Temperature  
Mean Temperature 82 °F -  
Max Temperature 90 °F 88 °F 104 °F (1993)
Min Temperature 73 °F 69 °F 56 °F (1963)
Cooling Degree Days 16    
Growing Degree Days 32 (Base 50)    
Moisture  
Dew Point 68 °F    
Average Humidity 65    
Maximum Humidity 83    
Minimum Humidity 43    
Precipitation  
Precipitation 0.00 in - - ()
Sea Level Pressure  
Sea Level Pressure 30.04 in    
Wind  
Wind Speed 5 mph (WSW)    
Max Wind Speed 15 mph    
Max Gust Speed 23 mph    
Visibility 10 miles    
Events Rain    
Averages and records for this station are not official NWS values.
T = Trace of Precipitation, MM = Missing Value Source: NWS Daily Summary

Daily Weather History Graph

Daily Weather History Graph

Search for Another Location

Airport or City:

Trip Planner

Search our weather history database for the weather conditions in past years. The results will help you decide how hot, cold, wet, or windy it might be!

Date:

Astronomy

Jul. 09, 2013 Rise Set
Actual Time 5:34 AM EDT 8:29 PM EDT
Civil Twilight 5:01 AM EDT 9:02 PM EDT
Nautical Twilight 4:20 AM EDT 9:43 PM EDT
Astronomical Twilight 3:32 AM EDT 10:31 PM EDT
Moon 6:57 AM EDT (7/9) 9:04 PM EDT (7/9)
Length of Visible Light 16h 00m
Length of Day
14h 54m
New Moon, 2% of the Moon is Illuminated
Jul 9
New Moon
Jul 15
First Quarter
Jul 22
Full
Jul 29
Last Quarter
Aug 6
New

Hourly Weather History & Observations

Time (EDT) Temp. Heat Index Dew Point Humidity Pressure Visibility Wind Dir Wind Speed Gust Speed Precip Events Conditions
12:15 AM 77.9 °F - 65.7 °F 66% 30.05 in 10.0 mi WSW 5.8 mph - N/A   Clear
12:35 AM 77.4 °F - 65.8 °F 67% 30.05 in 10.0 mi WSW 4.6 mph - N/A   Clear
12:55 AM 77.0 °F - 66.2 °F 69% 30.05 in 10.0 mi WSW 8.1 mph - N/A   Clear
1:15 AM 76.5 °F - 66.6 °F 71% 30.05 in 10.0 mi West 8.1 mph - N/A   Clear
1:35 AM 76.5 °F - 66.6 °F 71% 30.05 in 10.0 mi West 6.9 mph - N/A   Clear
1:55 AM 76.1 °F - 66.9 °F 73% 30.05 in 10.0 mi WSW 4.6 mph - N/A   Clear
2:15 AM 76.1 °F - 67.1 °F 74% 30.05 in 10.0 mi WSW 4.6 mph - N/A   Clear
2:35 AM 75.6 °F - 67.3 °F 75% 30.05 in 10.0 mi WSW 3.5 mph - N/A   Clear
2:55 AM 75.2 °F - 67.5 °F 77% 30.04 in 10.0 mi WSW 4.6 mph - N/A   Clear
3:15 AM 75.2 °F - 67.6 °F 77% 30.04 in 10.0 mi WSW 3.5 mph - N/A   Clear
3:35 AM 74.8 °F - 67.6 °F 78% 30.04 in 10.0 mi Calm Calm - N/A   Clear
3:55 AM 74.7 °F - 67.6 °F 79% 30.04 in 10.0 mi WSW 3.5 mph - N/A   Clear
4:15 AM 74.8 °F - 68.0 °F 79% 30.05 in 10.0 mi WSW 3.5 mph - N/A   Clear
4:35 AM 74.7 °F - 68.0 °F 80% 30.05 in 10.0 mi Calm Calm - N/A   Clear
4:55 AM 74.3 °F - 68.0 °F 81% 30.05 in 10.0 mi West 3.5 mph - N/A   Clear
5:15 AM 74.5 °F - 68.2 °F 81% 30.06 in 10.0 mi West 3.5 mph - N/A   Clear
5:35 AM 74.3 °F - 68.4 °F 82% 30.06 in 10.0 mi Calm Calm - N/A   Clear
5:55 AM 74.1 °F - 68.4 °F 82% 30.06 in 10.0 mi Calm Calm - N/A   Clear
6:15 AM 73.9 °F - 68.5 °F 83% 30.07 in 10.0 mi Calm Calm - N/A   Clear
6:35 AM 74.5 °F - 68.5 °F 82% 30.07 in 10.0 mi Calm Calm - N/A   Clear
6:55 AM 75.2 °F - 68.5 °F 80% 30.06 in 10.0 mi Calm Calm - N/A   Clear
7:15 AM 76.1 °F - 68.7 °F 78% 30.06 in 10.0 mi WSW 3.5 mph - N/A   Clear
7:35 AM 76.8 °F - 68.9 °F 76% 30.07 in 10.0 mi WSW 3.5 mph - N/A   Clear
7:55 AM 77.7 °F - 68.7 °F 74% 30.07 in 10.0 mi Calm Calm - N/A   Clear
8:15 AM 78.8 °F - 69.1 °F 72% 30.08 in 10.0 mi West 6.9 mph - N/A   Clear
8:35 AM 79.5 °F - 68.9 °F 70% 30.08 in 10.0 mi West 5.8 mph - N/A   Clear
8:55 AM 80.6 °F 83.6 °F 69.3 °F 68% 30.08 in 10.0 mi West 3.5 mph - N/A   Clear
9:15 AM 81.5 °F 84.6 °F 68.5 °F 65% 30.07 in 10.0 mi WNW 3.5 mph - N/A   Clear
9:35 AM 82.2 °F 85.1 °F 68.2 °F 62% 30.07 in 10.0 mi Calm Calm - N/A   Clear
9:55 AM 83.7 °F 86.7 °F 67.8 °F 59% 30.06 in 10.0 mi West 5.8 mph - N/A   Clear
10:15 AM 83.5 °F 86.4 °F 67.8 °F 59% 30.06 in 10.0 mi West 4.6 mph - N/A   Clear
10:35 AM 84.9 °F 87.9 °F 67.6 °F 56% 30.07 in 10.0 mi West 4.6 mph - N/A   Clear
10:55 AM 86.2 °F 90.0 °F 68.9 °F 56% 30.07 in 10.0 mi WNW 5.8 mph - N/A   Clear
11:15 AM 86.7 °F 90.3 °F 68.0 °F 54% 30.06 in 10.0 mi West 5.8 mph - N/A   Clear
11:35 AM 87.6 °F 91.1 °F 68.2 °F 52% 30.06 in 10.0 mi West 5.8 mph - N/A   Clear
11:55 AM 87.8 °F 90.7 °F 66.9 °F 50% 30.06 in 10.0 mi WSW 8.1 mph - N/A   Clear
12:15 PM 88.0 °F 91.0 °F 67.1 °F 50% 30.06 in 10.0 mi WSW 4.6 mph - N/A   Clear
12:35 PM 89.1 °F 91.7 °F 66.2 °F 47% 30.06 in 10.0 mi West 9.2 mph - N/A   Clear
1:15 PM 88.2 °F 90.9 °F 66.9 °F 49% 30.05 in 10.0 mi West 9.2 mph - N/A   Clear
1:35 PM - - - N/A% - - North - - N/A   Unknown
1:55 PM - - - N/A% - - North - - N/A   Unknown
2:15 PM 88.9 °F 93.0 °F 68.7 °F 51% 30.04 in 10.0 mi WSW 9.2 mph 18.4 mph N/A   Clear
2:35 PM 89.2 °F 93.2 °F 68.4 °F 50% 30.04 in 10.0 mi WSW 9.2 mph - N/A   Scattered Clouds
2:55 PM 90.0 °F 94.1 °F 68.2 °F 49% 30.03 in 10.0 mi West 10.4 mph - N/A   Scattered Clouds
3:15 PM 89.6 °F 93.4 °F 68.2 °F 49% 30.02 in 10.0 mi West 10.4 mph 16.1 mph N/A   Scattered Clouds
3:35 PM 89.6 °F 91.8 °F 65.7 °F 45% 30.01 in 10.0 mi WSW 6.9 mph - N/A   Scattered Clouds
3:55 PM 90.7 °F 94.1 °F 67.5 °F 46% 30.01 in 10.0 mi West 10.4 mph 17.3 mph N/A   Scattered Clouds
4:15 PM 89.2 °F 92.8 °F 68.0 °F 49% 30.01 in 10.0 mi West 9.2 mph - N/A   Clear
4:35 PM 89.4 °F 92.7 °F 67.1 °F 48% 30.01 in 10.0 mi West 11.5 mph - N/A   Clear
4:55 PM 89.8 °F 92.5 °F 66.6 °F 46% 30.01 in 10.0 mi West 11.5 mph - N/A   Clear
5:15 PM 89.6 °F 92.2 °F 66.0 °F 46% 30.01 in 10.0 mi WSW 5.8 mph - N/A   Clear
5:35 PM 89.6 °F 91.1 °F 64.6 °F 43% 30.00 in 10.0 mi WSW 8.1 mph - N/A   Clear
5:55 PM 89.6 °F 92.2 °F 66.0 °F 46% 29.99 in 10.0 mi West 4.6 mph - N/A   Clear
6:15 PM 88.3 °F 90.9 °F 66.4 °F 48% 29.99 in 10.0 mi WSW 5.8 mph - N/A   Clear
6:35 PM 89.1 °F 92.5 °F 67.8 °F 49% 29.99 in 10.0 mi WSW 5.8 mph - N/A   Clear
6:55 PM 87.3 °F 91.6 °F 69.1 °F 55% 29.99 in 10.0 mi South 4.6 mph - N/A Rain Light Rain
7:15 PM 86.9 °F 90.6 °F 68.5 °F 54% 29.99 in 10.0 mi West 8.1 mph - N/A   Scattered Clouds
7:35 PM 87.1 °F 90.2 °F 67.5 °F 52% 30.00 in 10.0 mi West 8.1 mph - N/A   Clear
7:55 PM 86.5 °F 90.0 °F 68.4 °F 54% 30.00 in 10.0 mi WSW 6.9 mph - N/A   Clear
8:15 PM 81.1 °F 84.2 °F 68.9 °F 66% 30.01 in 10.0 mi West 15.0 mph 23.0 mph N/A   Scattered Clouds
8:35 PM 77.4 °F - 70.7 °F 80% 30.01 in 10.0 mi West 8.1 mph - N/A   Drizzle
8:55 PM 77.9 °F - 69.8 °F 76% 30.01 in 10.0 mi West 5.8 mph - N/A   Mostly Cloudy
9:15 PM 78.3 °F - 70.0 °F 76% 30.02 in 10.0 mi West 4.6 mph - N/A   Scattered Clouds
9:35 PM 78.8 °F - 69.8 °F 74% 30.03 in 10.0 mi West 3.5 mph - N/A   Scattered Clouds
9:55 PM 79.0 °F - 69.6 °F 73% 30.04 in 10.0 mi West 5.8 mph - N/A   Mostly Cloudy
10:15 PM 79.2 °F - 69.1 °F 71% 30.03 in 10.0 mi WSW 4.6 mph - N/A   Overcast
10:35 PM 79.3 °F - 69.3 °F 71% 30.02 in 10.0 mi Calm Calm - N/A   Scattered Clouds
10:55 PM 79.2 °F - 68.9 °F 71% 30.03 in 10.0 mi Calm Calm - N/A   Mostly Cloudy
11:15 PM 79.7 °F - 69.1 °F 70% 30.03 in 10.0 mi WSW 3.5 mph - N/A   Overcast
11:35 PM 79.5 °F - 69.1 °F 70% 30.03 in 10.0 mi West 3.5 mph - N/A   Overcast
11:55 PM 79.2 °F - 69.8 °F 73% 30.03 in 10.0 mi Calm Calm - N/A   Overcast